Simultaneous Nadir Overpasses (SNOs) Predictions

Prediction of SNOs between GOES-17 and NOAA-19 Satellite Orbit:

Table of predicted SNOs for the next 14.0 days since TLE Epoch: 10/28/2023
Index Date Time (GOES-17) GOES-17 Lat,Lon NOAA-19 Lat,Lon Distance(km) Time Diff (sec)
1 10/30/2023 03:58:23 0.00,-104.67 -0.38,-106.28 184.01 80
2 10/31/2023 03:43:37 0.00,-104.67 0.32,-103.33 152.50 80
3 11/01/2023 03:31:29 0.00,-104.67 0.97,-100.38 489.01 80
4 11/02/2023 16:03:30 -0.00,-104.69 0.78,-108.06 384.15 80
5 11/03/2023 15:51:22 -0.00,-104.69 0.11,-105.10 47.25 80
6 11/04/2023 15:41:55 -0.00,-104.70 -0.56,-102.15 289.82 80
7 11/07/2023 04:01:51 -0.00,-104.68 -0.52,-106.89 252.35 80
8 11/08/2023 03:47:04 -0.00,-104.68 0.19,-103.95 84.76 80
9 11/09/2023 03:34:57 -0.01,-104.69 0.86,-100.99 421.79 80
10 11/10/2023 16:06:54 0.00,-104.71 0.93,-108.66 450.32 80
